User: anonymous   Login
Location: Newark
(9.1167°S, 159.8667°E)
Time: 14:47:12
(UTC+00:00)
Language:

Envisat - Orbit

View from above orbital plane
View from above orbital plane
View from above satellite
View from above satellite

Ground track
Ground track

The orbit data is extracted from the following two-line orbital elements,

1 27386U 02009A   19295.05834872  .00000013  00000-0  17918-4 0  9994
2 27386  98.1449 309.6431 0001203  94.2731 325.7427 14.37960383924213
Epoch (UTC): 22 October 2019 01:24:01
Eccentricity: 0.0001203
inclination: 98.1449°
perigee height: 764 km
apogee height: 766 km
right ascension of ascending node: 309.6431°
argument of perigee: 94.2731°
revolutions per day: 14.37960383
mean anomaly at epoch: 325.7427°
orbit number at epoch: 92421

The dashed part of the orbit path shows where the satellite is in the earth's shadow,  

DLR